Regional Weather Roundup
Issued by NWS

Home | Current Version | Previous Version | Text Only | Print | Product List | Glossary Off
Versions: 1 2 3 4 5 6 7 8 9 10 11 12 13 14 15 16 17 18 19 20 21 22 23 24 25 26 27 28 29 30 31 32 33 34 35 36 37 38 39 40 41 42 43 44 45 46 47 48 49 50

000
ASUS43 KOAX 280602
RWRNE

WEATHER ROUNDUP FOR NEBRASKA
NATIONAL WEATHER SERVICE OMAHA NE
100 AM CDT FRI APR 28 2017

NOTES: SATELLITE DATA IS BEING USED TO AUGMENT CLOUD COVER ABOVE
       12000 FEET.
       "FAIR" INDICATES FEW OR NO CLOUDS BELOW 12,000 FEET WITH NO
       SIGNIFICANT WEATHER AND/OR OBSTRUCTIONS TO VISIBILITY.

  * THESE STATIONS DO NOT REPORT WEATHER SUCH AS RAIN...SNOW OR FOG.

NEZ001>004-019>022-054>056-280700-
NEBRASKA PANHANDLE

CITY           SKY/WX    TMP DP  RH WIND       PRES   REMARKS
SCOTTSBLUFF    CLOUDY    42  39  89 E9        29.62S
6HR MIN TEMP:  42; 6HR MAX TEMP:  45; 6HR PCP: TRACE;

ALLIANCE       LGT RAIN  41  39  93 SE13      29.63S
6HR MIN TEMP:  41; 6HR MAX TEMP:  43; 6HR PCP:  0.05;

CHADRON        RAIN      40  39  97 NE12      29.67S FOG     WCI  33
6HR MIN TEMP:  40; 6HR MAX TEMP:  43; 6HR PCP:  0.23;

KIMBALL        CLOUDY    37  37  97 CALM      29.63S
SIDNEY         CLOUDY    39  37  92 VRB3      29.63R
6HR MIN TEMP:  38; 6HR MAX TEMP:  40; 6HR PCP:  0.22;

$$

NEZ057>060-069>072-079>082-280700-
SOUTHWEST NEBRASKA

CITY           SKY/WX    TMP DP  RH WIND       PRES   REMARKS
NORTH PLATTE   LGT RAIN  44  43  96 E10       29.66F
6HR MIN TEMP:  44; 6HR MAX TEMP:  51; 6HR PCP:  0.11;

IMPERIAL       RAIN      42  40  92 N6        29.63R
6HR MIN TEMP:  42; 6HR MAX TEMP:  47; 6HR PCP:  0.46;

LEXINGTON      LGT RAIN  45  42  89 E10       29.68S
MCCOOK         LGT RAIN  44  43  96 E21       29.60F
6HR MIN TEMP:  44; 6HR MAX TEMP:  51; 6HR PCP:  0.39;

$$

NEZ005>010-023>029-035>040-094-280700-
NORTH CENTRAL NEBRASKA

CITY           SKY/WX    TMP DP  RH WIND       PRES   REMARKS
VALENTINE      CLOUDY    44  35  70 E10       29.73F
6HR MIN TEMP:  44; 6HR MAX TEMP:  54; 6HR PCP:  0.03;

AINSWORTH      CLOUDY    42  38  86 E10       29.74R
BROKEN BOW     CLOUDY    45  40  82 E9        29.70S
6HR MIN TEMP:  45; 6HR MAX TEMP:  50; 6HR PCP: TRACE;

O`NEILL        CLOUDY    41  32  69 E12       29.78R
ORD            CLOUDY    45  39  79 E6        29.73R
6HR MIN TEMP:  45; 6HR MAX TEMP:  50; 6HR PCP:  0.01;

THEDFORD       LGT RAIN  43  40  90 E7        29.71S
$$

NEZ041-046>049-061>064-073>077-083>087-280700-
SOUTH CENTRAL NEBRASKA

CITY           SKY/WX    TMP DP  RH WIND       PRES   REMARKS
GRAND ISLAND   CLOUDY    46  44  93 E7        29.73S
6HR MIN TEMP:  46; 6HR MAX TEMP:  55; 6HR PCP: TRACE;

AURORA         CLOUDY    46  43  86 E7        29.72S
HASTINGS       CLOUDY    46  42  86 E10       29.71S
6HR MIN TEMP:  46; 6HR MAX TEMP:  54; 6HR PCP: TRACE;

HEBRON         LGT RAIN  47  45  90 E7        29.72F
HOLDREGE       CLOUDY    45  41  88 E16       29.67S
KEARNEY *      CLOUDY    46  39  76 E13       29.70F
YORK           CLOUDY    48  43  81 E8        29.74S
$$

NEZ011>018-030>034-042>045-280700-
NORTHEAST NEBRASKA

CITY           SKY/WX    TMP DP  RH WIND       PRES   REMARKS
NORFOLK        CLEAR     40  32  73 E6        29.77S
6HR MIN TEMP:  40; 6HR MAX TEMP:  53;

ALBION         MOCLDY    44  35  70 E8        29.76S
BLAIR          CLOUDY    45  37  73 NE9       29.78S
FREMONT        CLOUDY    46  35  66 E7        29.79R
TEKAMAH        CLEAR     40  33  76 N8        29.80R WCI  34
6HR MIN TEMP:  39; 6HR MAX TEMP:  57;

WAYNE          CLEAR     35  34  94 N3        29.80R
$$

NEZ050>053-065>068-078-088>093-280700-
SOUTHEAST NEBRASKA

CITY           SKY/WX    TMP DP  RH WIND       PRES   REMARKS
LINCOLN        CLOUDY    50  43  77 NE3       29.77S
6HR MIN TEMP:  49; 6HR MAX TEMP:  56;

OMAHA EPPLEY   CLOUDY    48  35  60 VRB3      29.79R
6HR MIN TEMP:  44; 6HR MAX TEMP:  58;

BEATRICE       DRIZZLE   49  47  92 SE6       29.76R
FALLS CITY     CLOUDY    49  47  93 SE5       29.77R
6HR MIN TEMP:  49; 6HR MAX TEMP:  59; 6HR PCP:  0.04;

NEBRASKA CITY  CLOUDY    50  43  77 CALM      29.77R
$$

NEZ044-045-051>053-067-280700-
OMAHA AREA

CITY           SKY/WX    TMP DP  RH WIND       PRES   REMARKS
OMAHA EPPLEY   CLOUDY    48  35  60 VRB3      29.79R
6HR MIN TEMP:  44; 6HR MAX TEMP:  58;

BLAIR          CLOUDY    45  37  73 NE9       29.78S
FREMONT        CLOUDY    46  35  66 E7        29.79R
WAHOO          MOCLDY    48  37  64 NE6       29.77S
$$




USA.gov is the U.S. government's official web portal to all federal, state and local government web resources and services.